Location: Dilsberg
(49.3983°N, 8.8354°E)
Time: 20:40:42
(UTC+00:00)

Okean-O - Pass Details

Date: 19 May 2025
Orbit: 628 x 631 km, 98.0° (Epoch: 20 June)

Event Time Altitude Azimuth Distance (km) Brightness Sun altitude
Exits shadow 20:03:42 - 167° (SSE) 2,398 5.1 -8.0°
Reaches altitude 10° 20:04:39 10° 168° (SSE) 2,009 4.7 -8.1°
Maximum altitude 20:09:02 82° 256° (WSW) 645 2.7 -8.6°
Drops below altitude 10° 20:13:27 10° 345° (NNW) 2,024 6.3 -9.1°
Sets 20:15:40 0° 346° (NNW) 2,937 7.2 -9.4°
